{"data":{"norad_id":39410,"intl_designator":"2013-065A","name":"YAOGAN-19","alt_names":[],"object_type":"PAYLOAD","status":"ACTIVE","operator":null,"country":"PRC","launch_date":"2013-11-20","launch_site_code":"TAISC","launch_vehicle":null,"mission":null,"orbit_class":"UNKNOWN","rcs_meters":3.1623,"size_class":null,"mass_kg":null,"dimensions":null,"purposes":[],"wikipedia_slug":null,"has_3d_model":false,"image_url":null,"decayed_at":null,"tle_current":{"epoch":"2026-05-25T04:43:44.051232Z","epoch_age_seconds":68745,"freshness":"FRESH","line1":"1 39410U 13065A   26145.19703763  .00000155  00000+0  52338-3 0  9990","line2":"2 39410 100.1107 122.6239 0009806 137.0165 223.1716 13.15583440600620","mean_motion":13.1558344,"eccentricity":0.0009806,"inclination_deg":100.1107,"raan_deg":122.6239,"arg_perigee_deg":137.0165,"mean_anomaly_deg":223.1716,"bstar":0.00052338,"rev_number":60062,"period_min":109.45713941185,"perigee_km":1194.2040251662,"apogee_km":1209.0694774472,"semimajor_km":7579.7737513067,"source":"CELESTRAK","updated_at":"2026-05-25T13:37:55.398789Z"}}}